Regional Weather Roundup
Issued by NWS Green Bay, WI

Home | Current Version | Previous Version | Text Only | Print | Product List | Glossary On
Versions: 1 2 3 4 5 6 7 8 9 10 11 12 13 14 15 16 17 18 19 20 21 22 23 24 25 26 27 28 29 30 31 32 33 34 35 36 37 38 39 40 41 42 43 44 45 46 47 48 49 50
000
ASUS43 KGRB 211110
RWRGRB

NORTH-CENTRAL AND NORTHEAST WISCONSIN REGIONAL WEATHER ROUNDUP
NATIONAL WEATHER SERVICE GREEN BAY WI
600 AM CDT TUE OCT 21 2014

WIZ005-009-010>012-018-019-211200-
NORTH CENTRAL WISCONSIN

CITY           SKY/WX    TMP DP  RH WIND       PRES   REMARKS
IRONWOOD       CLOUDY    39  37  93 NE3       30.18R
MANITOWISH WTR CLOUDY    37  35  92 N6        30.18R
ARBOR VITAE    CLOUDY    39  36  87 NE5       30.17R
EAGLE RIVER    CLOUDY    38  35  89 NE8       30.17R
LAND O LAKES   CLOUDY    37  35  92 NE6       30.19R
RHINELANDER    CLOUDY    38  34  85 VRB5      30.17R
PHILLIPS       CLOUDY    39  34  81 NE5       30.17R
ANTIGO         CLOUDY    39  35  87 N8        30.16R
TOMAHAWK       CLOUDY    40  33  78 CALM      30.17R
MERRILL        CLOUDY    40  34  77 NE8       30.17R
$$

WIZ013-073-211200-
NORTHEAST WISCONSIN

CITY           SKY/WX    TMP DP  RH WIND       PRES   REMARKS
IRON MOUNTAIN  CLOUDY    40  34  79 NW10      30.15R
MARINETTE      CLOUDY    43  37  81 N8        30.14R
OCONTO         CLOUDY    42  38  88 N6        30.14R
$$

WIZ017-030-035>037-045-211200-
CENTRAL WISCONSIN

CITY           SKY/WX    TMP DP  RH WIND       PRES   REMARKS
MEDFORD        CLOUDY    39  34  81 N9        30.16R
WAUSAU         CLOUDY    42  34  73 N8        30.15R
MOSINEE        CLOUDY    39  36  87 N10       30.16R
MARSHFIELD     MOCLDY    40  34  79 N3        30.16R
WISC RAPIDS    CLEAR     38  34  85 NE7       30.17R
STEVENS POINT  CLOUDY    37  33  89 N5        30.16R
WAUPACA        CLOUDY    43  38  82 NW3       30.16R
SHAWANO        PTCLDY    44  37  77 N10       30.16R
CLINTONVILLE   CLOUDY    43  36  75 N6        30.15R
$$

WIZ038-039-048-051-211200-
FOX VALLEY

CITY           SKY/WX    TMP DP  RH WIND       PRES   REMARKS
NWS GREEN BAY  CLOUDY    43  37  79 N10       30.14R
APPLETON       CLOUDY    43  36  75 N10       30.14R
OSHKOSH        CLOUDY    44  37  76 N12       30.13R
FOND DU LAC    CLOUDY    44  37  76 N8        30.13R
$$

WIZ022-050-052-211200-
EAST CENTRAL WISCONSIN

CITY           SKY/WX    TMP DP  RH WIND       PRES   REMARKS
STURGEON BAY   CLOUDY    45  37  76 N21       30.12R
MANITOWOC      CLOUDY    45  40  82 N13       30.12R
SHEBOYGAN      CLOUDY    45  39  79 N10       30.11R
$$

LMZ563-521-522-541>543-211200-
LAKESHORE

STATION/POSITION TIME  TEMP    WIND        PRES    VSBY  WAVE
                       AIR SEA DIR/SP/G                  HT/PER
                 (UTC) (F)     (DEG/KT/KT) (MB)    (MI)  (FT/S)
SHEBOYGAN LKSHOR 1100   46 50  340/ 14/ 18 1020.0R
KEWAUNEE LKSHORE 1100   45     350/  9/ 13 1018.6R
NORTHPORT PIER   1100   46     360/ 18/ 24 1020.0R
N MID LAKE BUOY  1100   46 51  360/ 19/ 23 1019.2R         4/ 5
SISTER BAY LKSHO 1000          360/ 17/ 24   N/A
CHAMBERS ISLAND  1100   45     330/ 19/ 25 1020.3R
MENOMINEE LKSHOR 1100   44     350/ 15/ 17 1021.0R
$$



USA.gov is the U.S. government's official web portal to all federal, state and local government web resources and services.